Regional Weather Roundup
Issued by NWS

Home | Current Version | Previous Version | Graphics & Text | Print | Product List | Glossary Off
Versions: 1 2 3 4 5 6 7 8 9 10 11 12 13 14 15 16 17 18 19 20 21 22 23 24 25 26 27 28 29 30 31 32 33 34 35 36 37 38 39 40 41 42 43 44 45 46 47 48 49 50

000
ASUS43 KOAX 280010
RWRNE

WEATHER ROUNDUP FOR NEBRASKA
NATIONAL WEATHER SERVICE OMAHA NE
600 PM CST SAT DEC 27 2014

NOTES: SATELLITE DATA IS BEING USED TO AUGMENT CLOUD COVER ABOVE
       12000 FEET.
       "FAIR" INDICATES FEW OR NO CLOUDS BELOW 12,000 FEET WITH NO
       SIGNIFICANT WEATHER AND/OR OBSTRUCTIONS TO VISIBILITY.

  * THESE STATIONS DO NOT REPORT WEATHER SUCH AS RAIN...SNOW OR FOG.

NEZ001>004-019>022-054>056-280100-
NEBRASKA PANHANDLE

CITY           SKY/WX    TMP DP  RH WIND       PRES   REMARKS
SCOTTSBLUFF    PTCLDY    18  10  71 W7        30.09R WCI   9
6HR MIN TEMP:  12; 6HR MAX TEMP:  21;

ALLIANCE       CLEAR      9   3  77 W9        30.07R WCI  -4
6HR MIN TEMP:   9; 6HR MAX TEMP:  21;

CHADRON        CLEAR      9   3  77 SW7       30.07S WCI  -2
6HR MIN TEMP:   9; 6HR MAX TEMP:  25;

KIMBALL        PTCLDY    13   4  68 W12       30.05S WCI  -1
SIDNEY         CLEAR      5   0  79 CALM      30.10R
6HR MIN TEMP:   5; 6HR MAX TEMP:  22;

$$

NEZ057>060-069>072-079>082-280100-
SOUTHWEST NEBRASKA

CITY           SKY/WX    TMP DP  RH WIND       PRES   REMARKS
NORTH PLATTE   CLEAR     13   8  81 W6        30.16R WCI   4
6HR MIN TEMP:  13; 6HR MAX TEMP:  23;

IMPERIAL       CLEAR     19  10  68 SW3       30.16R
6HR MIN TEMP:  18; 6HR MAX TEMP:  27;

LEXINGTON      CLEAR     18  13  80 SW6       30.19S WCI  10
MCCOOK         CLEAR     21  13  71 SW5       30.19F WCI  15
6HR MIN TEMP:  19; 6HR MAX TEMP:  26;

OGALLALA       CLEAR     13   8  78 CALM      30.14S
$$

NEZ005>010-023>029-035>040-094-280100-
NORTH CENTRAL NEBRASKA

CITY           SKY/WX    TMP DP  RH WIND       PRES   REMARKS
VALENTINE      CLEAR     14   9  80 SW12      30.09S WCI   0
6HR MIN TEMP:  12; 6HR MAX TEMP:  24;

AINSWORTH      CLEAR     15  10  81 SW7       30.10S WCI   5
BROKEN BOW     CLEAR     16  10  77 CALM      30.15S
6HR MIN TEMP:  14; 6HR MAX TEMP:  24;

O`NEILL        CLEAR     15  14  93 SW6       30.15S WCI   7
ORD            CLEAR     17  12  80 CALM      30.17R
6HR MIN TEMP:  17; 6HR MAX TEMP:  25;

THEDFORD       CLEAR     19  15  82 SW5       30.12S WCI  12
$$

NEZ041-046>049-061>064-073>077-083>087-280100-
SOUTH CENTRAL NEBRASKA

CITY           SKY/WX    TMP DP  RH WIND       PRES   REMARKS
GRAND ISLAND   CLEAR     17  11  77 SW7       30.22S WCI   8
6HR MIN TEMP:  17; 6HR MAX TEMP:  26;

AURORA         CLEAR     17  12  80 SW7       30.21F WCI   8
HASTINGS       CLEAR     21  13  71 SW5       30.20F WCI  15
6HR MIN TEMP:  20; 6HR MAX TEMP:  25;

HEBRON         CLEAR     22  15  72 W3        30.25F
HOLDREGE       CLEAR     20  15  80 SW5       30.20S WCI  13
KEARNEY *      CLEAR     18  10  73 SW6       30.20S WCI   9
YORK           CLEAR     16  14  93 W6        30.23S WCI   7
$$

NEZ011>018-030>034-042>045-280100-
NORTHEAST NEBRASKA

CITY           SKY/WX    TMP DP  RH WIND       PRES   REMARKS
NORFOLK        CLEAR     11   8  88 S7        30.19S WCI   0
6HR MIN TEMP:  11; 6HR MAX TEMP:  23;

ALBION         CLEAR     17  11  78 CALM      30.19S
BLAIR          CLEAR     21  15  76 CALM      30.22F
COLUMBUS *     CLEAR     21  10  63 SW3       30.23S
FREMONT        FAIR      20  15  82 CALM      30.24R
TEKAMAH        CLEAR     18  13  80 SW5       30.25S WCI  11
6HR MIN TEMP:  18; 6HR MAX TEMP:  24;

WAYNE          CLEAR     12   8  83 S6        30.21S WCI   3
$$

NEZ050>053-065>068-078-088>093-280100-
SOUTHEAST NEBRASKA

CITY           SKY/WX    TMP DP  RH WIND       PRES   REMARKS
LINCOLN        CLEAR     24  16  71 CALM      30.27R
6HR MIN TEMP:  24; 6HR MAX TEMP:  28;

OMAHA EPPLEY   CLEAR     22  14  71 NW7       30.26R WCI  13
6HR MIN TEMP:  21; 6HR MAX TEMP:  27;

BEATRICE       CLEAR     22  17  81 CALM      30.25S
FALLS CITY     CLEAR     26  19  74 W5        30.26R WCI  20
6HR MIN TEMP:  26; 6HR MAX TEMP:  31;

NEBRASKA CITY  CLEAR     24  17  75 NW3       30.25R
PLATTSMOUTH    CLEAR     22  15  75 W5        30.24S WCI  15
$$

NEZ044-045-051>053-067-280100-
OMAHA AREA

CITY           SKY/WX    TMP DP  RH WIND       PRES   REMARKS
OMAHA EPPLEY   CLEAR     22  14  71 NW7       30.26R WCI  13
6HR MIN TEMP:  21; 6HR MAX TEMP:  27;

BLAIR          CLEAR     21  15  76 CALM      30.22F
FREMONT        FAIR      20  15  82 CALM      30.24R
MILLARD        PTCLDY    24  16  71 CALM      30.25S
OFFUTT AFB     CLEAR     23  15  70 W6        30.25R WCI  16
PLATTSMOUTH    CLEAR     22  15  75 W5        30.24S WCI  15
WAHOO          FAIR      20  14  79 W5        30.24S WCI  13
$$



USA.gov is the U.S. government's official web portal to all federal, state and local government web resources and services.